TimeEST,TemperatureF,Dew PointF,Humidity,Sea Level PressureIn,VisibilityMPH,Wind Direction,Wind SpeedMPH,Gust SpeedMPH,PrecipitationIn,Events,Conditions,WindDirDegrees,DateUTC
12:15 AM,32.5,27.5,82,29.79,10.0,WSW,9.2,16.1,N/A,,Overcast,250,2013-02-23 05:15:00
12:55 AM,32.5,26.6,79,29.79,10.0,WSW,13.8,-,N/A,,Overcast,250,2013-02-23 05:55:00
1:14 AM,32.5,27.0,80,29.79,10.0,WSW,10.4,-,N/A,Snow,Light Snow,250,2013-02-23 06:14:00
1:35 AM,32.5,26.6,79,29.79,10.0,WSW,11.5,17.3,N/A,Snow,Light Snow,250,2013-02-23 06:35:00
1:55 AM,32.5,26.4,78,29.78,10.0,WSW,10.4,17.3,N/A,Snow,Light Snow,250,2013-02-23 06:55:00
2:14 AM,32.5,26.4,78,29.78,10.0,West,9.2,16.1,N/A,,Overcast,260,2013-02-23 07:14:00
2:35 AM,32.5,26.2,78,29.78,10.0,WSW,10.4,-,N/A,,Overcast,250,2013-02-23 07:35:00
2:55 AM,32.5,26.4,78,29.78,10.0,WSW,11.5,16.1,N/A,,Overcast,250,2013-02-23 07:55:00
3:15 AM,32.5,26.4,78,29.78,10.0,WSW,11.5,16.1,N/A,Snow,Light Snow,250,2013-02-23 08:15:00
3:35 AM,31.8,25.2,76,29.78,10.0,WSW,9.2,16.1,N/A,Snow,Light Snow,250,2013-02-23 08:35:00
3:54 AM,31.8,25.5,78,29.78,10.0,West,6.9,17.3,N/A,Snow,Light Snow,260,2013-02-23 08:54:00
4:15 AM,31.6,25.3,78,29.78,10.0,West,8.1,-,N/A,Snow,Light Snow,270,2013-02-23 09:15:00
4:35 AM,31.6,25.2,77,29.78,10.0,West,9.2,-,N/A,Snow,Light Snow,270,2013-02-23 09:35:00
4:54 AM,31.5,25.5,79,29.78,10.0,West,10.4,-,N/A,Snow,Light Snow,260,2013-02-23 09:54:00
5:15 AM,31.1,25.2,79,29.78,10.0,West,9.2,-,N/A,Snow,Light Snow,260,2013-02-23 10:15:00
5:34 AM,31.1,24.8,77,29.78,10.0,West,6.9,-,N/A,Snow,Light Snow,270,2013-02-23 10:34:00
5:55 AM,31.1,24.8,77,29.79,7.0,West,9.2,-,N/A,Snow,Light Snow,260,2013-02-23 10:55:00
6:15 AM,30.2,24.6,80,29.79,5.0,West,13.8,-,N/A,Snow,Light Snow,260,2013-02-23 11:15:00
6:34 AM,30.2,23.9,77,29.79,7.0,West,8.1,-,N/A,Snow,Light Snow,260,2013-02-23 11:34:00
6:55 AM,30.2,23.9,77,29.79,10.0,West,11.5,16.1,N/A,Snow,Light Snow,260,2013-02-23 11:55:00
7:15 AM,30.2,23.0,75,29.80,10.0,West,10.4,16.1,N/A,Snow,Light Snow,260,2013-02-23 12:15:00
7:35 AM,30.2,23.4,76,29.80,10.0,WSW,9.2,-,N/A,,Overcast,250,2013-02-23 12:35:00
7:55 AM,30.2,23.7,77,29.81,10.0,WSW,13.8,18.4,N/A,Snow,Light Snow,250,2013-02-23 12:55:00
8:15 AM,30.2,23.9,77,29.81,10.0,WSW,12.7,19.6,N/A,Snow,Light Snow,250,2013-02-23 13:15:00
8:35 AM,30.2,23.9,77,29.81,10.0,West,10.4,-,N/A,Snow,Light Snow,260,2013-02-23 13:35:00
8:55 AM,30.2,23.5,76,29.81,10.0,West,10.4,-,N/A,Snow,Light Snow,260,2013-02-23 13:55:00
9:15 AM,30.2,23.0,75,29.81,7.0,WSW,11.5,19.6,N/A,Snow,Light Snow,250,2013-02-23 14:15:00
9:35 AM,30.2,23.5,76,29.81,5.0,WSW,10.4,16.1,N/A,Snow,Light Snow,250,2013-02-23 14:35:00
9:55 AM,30.2,23.9,77,29.81,4.0,West,9.2,16.1,N/A,Snow,Light Snow,260,2013-02-23 14:55:00
10:15 AM,30.2,23.9,77,29.81,5.0,West,11.5,16.1,N/A,Snow,Light Snow,260,2013-02-23 15:15:00
11:14 AM,30.2,23.9,77,29.82,5.0,WSW,11.5,16.1,N/A,Snow,Light Snow,250,2013-02-23 16:14:00
11:35 AM,30.2,24.6,80,29.82,2.5,WSW,8.1,-,N/A,Snow,Light Snow,250,2013-02-23 16:35:00
12:14 PM,30.2,23.9,77,29.82,4.0,West,11.5,-,N/A,Snow,Light Snow,260,2013-02-23 17:14:00
12:35 PM,30.2,23.9,77,29.82,4.0,West,8.1,-,N/A,Snow,Light Snow,260,2013-02-23 17:35:00
12:55 PM,30.2,23.5,76,29.82,7.0,WSW,9.2,16.1,N/A,Snow,Light Snow,250,2013-02-23 17:55:00
1:14 PM,30.2,22.8,74,29.82,7.0,WSW,11.5,17.3,N/A,,Overcast,250,2013-02-23 18:14:00
1:35 PM,30.2,23.0,75,29.82,10.0,WSW,9.2,-,N/A,,Overcast,250,2013-02-23 18:35:00
1:55 PM,30.2,22.6,73,29.82,10.0,WSW,10.4,-,N/A,,Overcast,250,2013-02-23 18:55:00
2:15 PM,30.2,22.8,74,29.82,10.0,West,8.1,-,N/A,Snow,Light Snow,260,2013-02-23 19:15:00
2:34 PM,30.2,22.1,72,29.82,10.0,West,8.1,-,N/A,Snow,Light Snow,260,2013-02-23 19:34:00
2:55 PM,30.2,21.9,71,29.81,7.0,West,9.2,-,N/A,Snow,Light Snow,260,2013-02-23 19:55:00
3:15 PM,30.2,22.5,73,29.81,4.0,West,5.8,-,N/A,Snow,Light Snow,270,2013-02-23 20:15:00
3:34 PM,30.2,22.5,73,29.81,5.0,West,5.8,-,N/A,Snow,Light Snow,260,2013-02-23 20:34:00
3:55 PM,30.2,22.1,72,29.82,10.0,West,6.9,-,N/A,Snow,Light Snow,270,2013-02-23 20:55:00
4:14 PM,30.2,21.9,71,29.82,10.0,West,9.2,-,N/A,,Overcast,270,2013-02-23 21:14:00
4:35 PM,30.2,21.7,71,29.82,10.0,West,6.9,-,N/A,,Overcast,260,2013-02-23 21:35:00
4:55 PM,30.2,21.7,71,29.82,7.0,West,8.1,-,N/A,,Overcast,260,2013-02-23 21:55:00
5:14 PM,30.2,21.7,71,29.83,10.0,West,8.1,-,N/A,,Overcast,260,2013-02-23 22:14:00
5:35 PM,30.2,22.5,73,29.83,7.0,West,6.9,-,N/A,Snow,Light Snow,270,2013-02-23 22:35:00
5:55 PM,30.2,24.8,80,29.84,1.2,West,5.8,-,N/A,Snow,Light Snow,280,2013-02-23 22:55:00
6:14 PM,30.2,25.3,82,29.84,2.5,West,8.1,-,N/A,Snow,Light Snow,280,2013-02-23 23:14:00
6:35 PM,30.2,25.2,82,29.84,3.0,West,5.8,-,N/A,Snow,Light Snow,280,2013-02-23 23:35:00
6:55 PM,30.2,24.4,79,29.84,7.0,WSW,5.8,-,N/A,,Overcast,250,2013-02-23 23:55:00
7:14 PM,30.2,24.3,79,29.84,3.0,West,8.1,-,N/A,Snow,Light Snow,260,2013-02-24 00:14:00
7:35 PM,30.2,25.7,83,29.85,2.5,WSW,6.9,-,N/A,Snow,Light Snow,250,2013-02-24 00:35:00
7:55 PM,30.2,25.7,83,29.85,2.5,West,11.5,-,N/A,Snow,Light Snow,260,2013-02-24 00:55:00
8:14 PM,30.2,24.8,80,29.86,7.0,West,6.9,17.3,N/A,Snow,Light Snow,260,2013-02-24 01:14:00
8:35 PM,30.2,25.3,82,29.86,2.0,West,9.2,-,N/A,Snow,Light Snow,260,2013-02-24 01:35:00
8:55 PM,30.2,26.1,85,29.86,2.5,West,10.4,-,N/A,Snow,Light Snow,260,2013-02-24 01:55:00
9:14 PM,30.2,25.7,83,29.86,1.8,West,6.9,18.4,N/A,Snow,Light Snow,260,2013-02-24 02:14:00
9:35 PM,30.2,25.7,83,29.86,1.8,West,11.5,-,N/A,Snow,Light Snow,260,2013-02-24 02:35:00
9:55 PM,30.2,25.3,82,29.87,3.0,West,9.2,-,N/A,Snow,Light Snow,260,2013-02-24 02:55:00
10:15 PM,30.2,24.8,80,29.86,5.0,WSW,11.5,17.3,N/A,Snow,Light Snow,250,2013-02-24 03:15:00
10:35 PM,30.2,25.3,82,29.86,3.0,West,8.1,-,N/A,Snow,Light Snow,260,2013-02-24 03:35:00
10:55 PM,30.2,25.7,83,29.86,2.5,West,9.2,-,N/A,Snow,Light Snow,260,2013-02-24 03:55:00
11:15 PM,30.2,25.5,83,29.86,5.0,West,8.1,-,N/A,Snow,Light Snow,260,2013-02-24 04:15:00
11:55 PM,30.2,25.2,82,29.85,5.0,West,9.2,17.3,N/A,Snow,Light Snow,280,2013-02-24 04:55:00